• în Republica Moldova
  • Lista ţărilor
  • Pe 7 zile
  • Temperatura apei
  • Hartă satelitară
  • Meteo pe hartă
  • Widget-uri
  • user-avatar
    Intrare

    Meteo pe oră la Minkino

    Astăzi, 25 Septembrie, Marţi

    Timp Temperatura Precipitaţii Vânt Presiune Umiditate
    00:00 +5°C° 0.7 mm 6 m/s 727 mmHg 92%
    01:00 +5°C° 0.7 mm 6 m/s 727 mmHg 91%
    02:00 +6°C° 0 mm 5 m/s 728 mmHg 91%
    03:00 +5°C° 0.1 mm 5 m/s 729 mmHg 91%
    04:00 +5°C° 0.1 mm 5 m/s 729 mmHg 90%
    05:00 +3°C° 0.1 mm 6 m/s 730 mmHg 89%
    06:00 +4°C° 0 mm 6 m/s 731 mmHg 89%
    07:00 +4°C° 0 mm 6 m/s 732 mmHg 88%
    08:00 +3°C° 0 mm 6 m/s 733 mmHg 86%
    09:00 +4°C° 0 mm 6 m/s 733 mmHg 84%
    10:00 +5°C° 0 mm 5 m/s 734 mmHg 82%
    11:00 +5°C° 0 mm 5 m/s 735 mmHg 79%
    12:00 +6°C° 0.1 mm 5 m/s 735 mmHg 74%
    13:00 +7°C° 0.1 mm 5 m/s 736 mmHg 69%
    14:00 +8°C° 0 mm 5 m/s 737 mmHg 65%
    15:00 +7°C° 0.1 mm 5 m/s 738 mmHg 67%
    16:00 +7°C° 0.1 mm 4 m/s 738 mmHg 70%
    17:00 +6°C° 0.1 mm 4 m/s 739 mmHg 72%
    18:00 +5°C° 0 mm 4 m/s 739 mmHg 76%
    19:00 +4°C° 0 mm 4 m/s 740 mmHg 79%
    20:00 +4°C° 0 mm 4 m/s 741 mmHg 82%
    21:00 +3°C° 0 mm 3 m/s 741 mmHg 82%
    22:00 +3°C° 0 mm 3 m/s 742 mmHg 81%
    23:00 +2°C° 0 mm 3 m/s 743 mmHg 81%

    Mâine, 26 Septembrie, Miercuri

    Timp Temperatura Precipitaţii Vânt Presiune Umiditate
    00:00 +2°C° 0 mm 3 m/s 743 mmHg 82%
    01:00 +1°C° 0 mm 3 m/s 744 mmHg 83%
    02:00 +1°C° 0 mm 3 m/s 744 mmHg 85%
    03:00 +1°C° 0 mm 3 m/s 744 mmHg 86%
    04:00 +1°C° 0 mm 3 m/s 745 mmHg 87%
    05:00 +2°C° 0 mm 3 m/s 745 mmHg 89%
    06:00 +2°C° 0 mm 3 m/s 745 mmHg 85%
    07:00 +3°C° 0 mm 3 m/s 745 mmHg 82%
    08:00 +3°C° 0 mm 3 m/s 745 mmHg 78%
    09:00 +5°C° 0 mm 4 m/s 745 mmHg 72%
    10:00 +7°C° 0 mm 4 m/s 745 mmHg 67%
    11:00 +10°C° 0 mm 4 m/s 745 mmHg 61%
    12:00 +9°C° 0 mm 5 m/s 744 mmHg 59%
    13:00 +10°C° 0 mm 5 m/s 743 mmHg 57%
    14:00 +10°C° 0 mm 6 m/s 743 mmHg 55%
    15:00 +9°C° 0.1 mm 6 m/s 742 mmHg 60%
    16:00 +8°C° 0.1 mm 6 m/s 741 mmHg 65%
    17:00 +8°C° 0.1 mm 6 m/s 740 mmHg 70%
    18:00 +7°C° 1 mm 6 m/s 739 mmHg 76%
    19:00 +5°C° 1 mm 7 m/s 737 mmHg 82%
    20:00 +5°C° 1 mm 8 m/s 736 mmHg 87%
    21:00 +5°C° 1.3 mm 8 m/s 735 mmHg 88%
    22:00 +5°C° 1.3 mm 8 m/s 734 mmHg 88%
    23:00 +5°C° 1.3 mm 8 m/s 732 mmHg 89%

    Poimâine, 27 Septembrie, Joi

    Timp Temperatura Precipitaţii Vânt Presiune Umiditate
    00:00 +5°C° 0.8 mm 8 m/s 732 mmHg 89%
    01:00 +5°C° 0.8 mm 8 m/s 731 mmHg 90%
    02:00 +6°C° 0.8 mm 8 m/s 730 mmHg 90%
    03:00 +6°C° 1 mm 7 m/s 730 mmHg 91%
    04:00 +7°C° 1 mm 6 m/s 730 mmHg 91%
    05:00 +7°C° 1 mm 5 m/s 730 mmHg 91%
    06:00 +7°C° 0.1 mm 5 m/s 730 mmHg 88%
    07:00 +7°C° 0.1 mm 5 m/s 731 mmHg 85%
    08:00 +7°C° 0.1 mm 5 m/s 731 mmHg 82%
    09:00 +7°C° 0.1 mm 6 m/s 731 mmHg 77%
    10:00 +8°C° 0.1 mm 6 m/s 732 mmHg 71%
    11:00 +9°C° 0.1 mm 7 m/s 732 mmHg 66%
    12:00 +9°C° 0.3 mm 7 m/s 732 mmHg 65%
    13:00 +9°C° 0.3 mm 7 m/s 733 mmHg 65%
    14:00 +9°C° 0.3 mm 7 m/s 733 mmHg 64%
    15:00 +9°C° 0 mm 6 m/s 733 mmHg 66%
    16:00 +8°C° 0 mm 5 m/s 733 mmHg 67%
    17:00 +8°C° 0 mm 4 m/s 734 mmHg 69%
    18:00 +7°C° 0 mm 4 m/s 734 mmHg 70%
    19:00 +6°C° 0 mm 4 m/s 734 mmHg 71%
    20:00 +6°C° 0 mm 4 m/s 734 mmHg 73%
    21:00 +6°C° 0 mm 4 m/s 734 mmHg 74%
    22:00 +5°C° 0 mm 3 m/s 734 mmHg 75%
    23:00 +5°C° 0 mm 3 m/s 734 mmHg 76%

    28 Septembrie, Vineri

    Timp Temperatura Precipitaţii Vânt Presiune Umiditate
    00:00 +5°C° 0.2 mm 4 m/s 733 mmHg 79%
    01:00 +6°C° 0.2 mm 4 m/s 732 mmHg 81%
    02:00 +6°C° 0.2 mm 4 m/s 731 mmHg 84%
    03:00 +7°C° 2.2 mm 5 m/s 729 mmHg 86%
    04:00 +9°C° 2.2 mm 6 m/s 728 mmHg 88%
    05:00 +11°C° 2.2 mm 7 m/s 727 mmHg 90%
    06:00 +10°C° 2.4 mm 7 m/s 726 mmHg 90%
    07:00 +10°C° 2.4 mm 7 m/s 726 mmHg 90%
    08:00 +10°C° 2.4 mm 7 m/s 726 mmHg 90%
    09:00 +9°C° 0.4 mm 6 m/s 727 mmHg 89%
    10:00 +8°C° 0.4 mm 6 m/s 728 mmHg 88%
    11:00 +7°C° 0.4 mm 5 m/s 729 mmHg 87%
    12:00 +7°C° 0.1 mm 5 m/s 730 mmHg 84%
    13:00 +7°C° 0.1 mm 5 m/s 731 mmHg 80%
    14:00 +7°C° 0.1 mm 4 m/s 732 mmHg 76%
    15:00 +6°C° 0 mm 4 m/s 733 mmHg 78%
    16:00 +7°C° 0 mm 3 m/s 734 mmHg 80%
    17:00 +6°C° 0 mm 2 m/s 735 mmHg 82%
    18:00 +6°C° 0 mm 2 m/s 735 mmHg 85%
    19:00 +5°C° 0 mm 2 m/s 736 mmHg 89%
    20:00 +4°C° 0 mm 2 m/s 736 mmHg 93%
    21:00 +4°C° 0 mm 2 m/s 737 mmHg 93%
    22:00 +4°C° 0 mm 2 m/s 737 mmHg 94%
    23:00 +3°C° 0 mm 2 m/s 738 mmHg 94%

    29 Septembrie, Sâmbătă

    Timp Temperatura Precipitaţii Vânt Presiune Umiditate
    00:00 +3°C° 0 mm 2 m/s 738 mmHg 94%
    01:00 +2°C° 0 mm 2 m/s 739 mmHg 94%
    02:00 +3°C° 0 mm 1 m/s 740 mmHg 94%
    03:00 +1°C° 0 mm 2 m/s 740 mmHg 93%
    04:00 +1°C° 0 mm 2 m/s 741 mmHg 93%
    05:00 -1°C° 0 mm 2 m/s 741 mmHg 92%
    06:00 +1°C° 0 mm 2 m/s 742 mmHg 88%
    07:00 +2°C° 0 mm 2 m/s 742 mmHg 84%
    08:00 +3°C° 0 mm 2 m/s 743 mmHg 81%
    09:00 +3°C° 0 mm 3 m/s 744 mmHg 72%
    10:00 +4°C° 0 mm 3 m/s 744 mmHg 64%
    11:00 +7°C° 0 mm 3 m/s 745 mmHg 55%
    12:00 +7°C° 0 mm 3 m/s 745 mmHg 54%
    13:00 +7°C° 0 mm 3 m/s 745 mmHg 52%
    14:00 +7°C° 0 mm 3 m/s 746 mmHg 50%
    15:00 +5°C° 0 mm 3 m/s 746 mmHg 55%
    16:00 +5°C° 0 mm 2 m/s 746 mmHg 61%
    17:00 +5°C° 0 mm 1 m/s 746 mmHg 66%
    18:00 +4°C° 0 mm 1 m/s 747 mmHg 69%
    19:00 +3°C° 0 mm 1 m/s 747 mmHg 73%
    20:00 +2°C° 0 mm 1 m/s 747 mmHg 76%
    21:00 +2°C° 0 mm 1 m/s 748 mmHg 78%
    22:00 +2°C° 0 mm 1 m/s 748 mmHg 79%
    23:00 +1°C° 0 mm 2 m/s 748 mmHg 81%

    30 Septembrie, Duminică

    Timp Temperatura Precipitaţii Vânt Presiune Umiditate
    00:00 +1°C° 0 mm 2 m/s 748 mmHg 81%
    01:00 +1°C° 0 mm 2 m/s 748 mmHg 81%
    02:00 +1°C° 0 mm 2 m/s 748 mmHg 81%
    03:00 +1°C° 0 mm 2 m/s 748 mmHg 81%
    04:00 0°C° 0 mm 3 m/s 748 mmHg 81%
    05:00 0°C° 0 mm 3 m/s 748 mmHg 80%
    06:00 +1°C° 0 mm 3 m/s 748 mmHg 75%
    07:00 +1°C° 0 mm 4 m/s 748 mmHg 70%
    08:00 +3°C° 0 mm 4 m/s 748 mmHg 65%
    09:00 +4°C° 0 mm 4 m/s 747 mmHg 60%
    10:00 +6°C° 0 mm 5 m/s 747 mmHg 56%
    11:00 +7°C° 0 mm 5 m/s 747 mmHg 51%
    12:00 +8°C° 0 mm 5 m/s 747 mmHg 50%
    13:00 +8°C° 0 mm 5 m/s 746 mmHg 48%
    14:00 +9°C° 0 mm 5 m/s 746 mmHg 47%
    15:00 +8°C° 0 mm 5 m/s 745 mmHg 52%
    16:00 +7°C° 0 mm 4 m/s 745 mmHg 57%
    17:00 +7°C° 0 mm 3 m/s 745 mmHg 61%
    18:00 +5°C° 0 mm 3 m/s 745 mmHg 63%
    19:00 +5°C° 0 mm 4 m/s 744 mmHg 66%
    20:00 +4°C° 0 mm 4 m/s 744 mmHg 68%
    21:00 +4°C° 0 mm 4 m/s 744 mmHg 70%
    22:00 +4°C° 0 mm 4 m/s 744 mmHg 72%
    23:00 +4°C° 0 mm 4 m/s 744 mmHg 75%
    Arată mai mult